Regional Weather Roundup
Issued by NWS

Home | Current Version | Previous Version | Text Only | Print | Product List | Glossary On
Versions: 1 2 3 4 5 6 7 8 9 10 11 12 13 14 15 16 17 18 19 20 21 22 23 24 25 26 27 28 29 30 31 32 33 34 35 36 37 38 39 40 41 42 43 44 45 46 47 48 49 50
000
ASUS43 KTOP 010359
RWRKS

WEATHER ROUNDUP FOR KANSAS
NATIONAL WEATHER SERVICE GOODLAND KS
1100 PM CDT THU JUL 31 2014

NOTE:  "FAIR" INDICATES FEW OR NO CLOUDS BELOW 12,000 FEET WITH NO
SIGNIFICANT WEATHER AND/OR OBSTRUCTIONS TO VISIBILITY.

KSZ001>006-013>018-027>032-041>047-010500-
NORTHWEST KANSAS

CITY           SKY/WX    TMP DP  RH WIND       PRES   REMARKS
GOODLAND       CLEAR     68  51  54 SW9       30.17R
HAYS           CLEAR     70  55  60 S8        30.08R
HILL CITY      CLOUDY    78  53  41 N7        30.08R
RUSSELL        CLEAR     71  59  65 S12       30.05R
$$

KSZ061>065-074>080-084>089-010500-
SOUTHWEST KANSAS

CITY           SKY/WX    TMP DP  RH WIND       PRES   REMARKS
DODGE CITY     PTCLDY    66  58  75 S7        30.14R
ELKHART          N/A     68  54  61 S3          N/A
GARDEN CITY    CLEAR     65  58  78 S5        30.14S
GREAT BEND       N/A     68  59  73 S8        30.08R
LIBERAL        CLOUDY    68  55  64 S3        30.18R
$$

KSZ066>073-081>083-090>101-010500-
SOUTHEAST KANSAS

CITY           SKY/WX    TMP DP  RH WIND       PRES   REMARKS
CHANUTE        CLEAR     65  61  87 CALM      30.07R
COFFEYVILLE    CLEAR     70  67  90 S3        30.06R
HUTCHINSON     CLEAR     63  56  78 CALM      30.07R
NEWTON         CLEAR     68  54  60 S6        30.10S
PARSONS        CLEAR     68  64  87 CALM      30.08R
WICHITA INTL   PTCLDY    68  58  70 S8        30.07R
WICHITA JABRA  CLEAR     68  61  78 S7        30.08R
WINFIELD       CLEAR     69  65  86 S3        30.09R
$$

KSZ007>012-019>026-033>040-048>060-102>105-010500-
NORTHEAST KANSAS

CITY           SKY/WX    TMP DP  RH WIND       PRES   REMARKS
CONCORDIA      MOCLDY    72  53  51 S15       30.04R
EMPORIA        CLEAR     66  56  70 S7        30.07R
LAWRENCE       CLEAR     65  59  81 E3        30.05R
MANHATTAN      MOCLDY    70  58  65 SW5       30.04R
OLATHE IND     CLEAR     70  60  70 SE6       30.07R
OLATHE EXE     CLEAR     69  60  73 SE5       30.06R
SALINA         CLEAR     70  54  56 S7        30.05R
TOPEKA BILLARD CLEAR     70  58  65 SE3       30.05R
TOPEKA FORBES  CLEAR     67  58  72 SE5       30.05S
$$



USA.gov is the U.S. government's official web portal to all federal, state and local government web resources and services.